Roros Lufthavn, Norway

2:54 PM CET on December 09, 2019 (GMT +0100)
Roros

Weather History for ENRO - October, 2019

Change the Weather History Date:

Thursday, October 24, 2019

  Actual Average Record
Temperature  
Mean Temperature 38 °F -  
Max Temperature 42 °F 36 °F 51 °F (2013)
Min Temperature 33 °F 27 °F 8 °F (2001)
Degree Days  
Heating Degree Days 28    
Moisture  
Dew Point 36 °F    
Average Humidity 84    
Maximum Humidity 100    
Minimum Humidity 66    
Precipitation  
Precipitation 0.00 in - - ()
Sea Level Pressure  
Sea Level Pressure 29.59 in    
Wind  
Wind Speed 6 mph ()    
Max Wind Speed 20 mph    
Max Gust Speed -    
Visibility 6.2 miles    
Events Rain    
Averages and records for this station are not official NWS values.
T = Trace of Precipitation, MM = Missing Value Source: Averaged Metar Reports

Daily Weather History Graph

Daily Weather History Graph

Search for Another Location

Airport or City:

Astronomy

Oct. 24, 2019 Rise Set
Actual Time 8:24 AM CEST 5:31 PM CEST
Civil Twilight 7:36 AM CEST 6:19 PM CEST
Nautical Twilight 6:44 AM CEST 7:12 PM CEST
Astronomical Twilight 5:51 AM CEST 8:04 PM CEST
Moon 1:32 AM CEST (10/24) 5:32 PM CEST (10/24)
Length of Visible Light 10h 42m
Length of Day
9h 07m
Waning Crescent, 19% of the Moon is Illuminated
Oct 24
Waning Crescent
Oct 28
New
Nov 4
First Quarter
Nov 12
Full
Nov 19
Last Quarter

Hourly Weather History & Observations

Time (CEST) Temp. Windchill Dew Point Humidity Pressure Visibility Wind Dir Wind Speed Gust Speed Precip Events Conditions
12:20 AM 37.4 °F 34.9 °F 37.4 °F 100% 29.65 in 6.2 mi ESE 3.5 mph - N/A   Mostly Cloudy
12:50 AM 37.4 °F 34.9 °F 37.4 °F 100% 29.62 in 6.2 mi SE 3.5 mph - N/A   Mostly Cloudy
1:20 AM 39.2 °F 35.9 °F 39.2 °F 100% 29.62 in 6.2 mi South 4.6 mph - N/A   Mostly Cloudy
1:50 AM 39.2 °F 35.9 °F 37.4 °F 93% 29.62 in 6.2 mi South 4.6 mph - N/A   Mostly Cloudy
2:20 AM 39.2 °F 33.6 °F 37.4 °F 93% 29.59 in 6.2 mi SE 8.1 mph - N/A   Overcast
2:50 AM 41.0 °F 36.4 °F 35.6 °F 81% 29.59 in 6.2 mi ESE 6.9 mph - N/A   Overcast
3:20 AM 41.0 °F 38.0 °F 35.6 °F 81% 29.62 in 6.2 mi Variable 4.6 mph - N/A   Mostly Cloudy
3:50 AM 42.8 °F 38.0 °F 35.6 °F 76% 29.59 in 6.2 mi SW 8.1 mph - N/A   Partly Cloudy
4:20 AM 41.0 °F 37.1 °F 35.6 °F 81% 29.59 in 6.2 mi SE 5.8 mph - N/A   Scattered Clouds
4:50 AM 41.0 °F 37.1 °F 35.6 °F 81% 29.59 in 6.2 mi ESE 5.8 mph - N/A   Mostly Cloudy
5:20 AM 41.0 °F 39.0 °F 35.6 °F 81% 29.59 in 6.2 mi SSE 3.5 mph - N/A   Partly Cloudy
5:50 AM 39.2 °F 34.2 °F 35.6 °F 87% 29.59 in 6.2 mi East 6.9 mph - N/A   Mostly Cloudy
6:20 AM 37.4 °F 34.9 °F 35.6 °F 93% 29.59 in 6.2 mi South 3.5 mph - N/A   Scattered Clouds
6:50 AM 37.4 °F 34.9 °F 35.6 °F 93% 29.59 in - NNE 3.5 mph - N/A   Clear
7:20 AM 35.6 °F 31.7 °F 35.6 °F 100% 29.59 in - SSE 4.6 mph - N/A   Clear
8:20 AM 35.6 °F - 33.8 °F 93% 29.59 in - Variable 2.3 mph - N/A   Clear
8:50 AM 33.8 °F 30.8 °F 33.8 °F 100% 29.59 in - Variable 3.5 mph - N/A   Clear
9:20 AM 39.2 °F 33.6 °F 33.8 °F 81% 29.59 in 6.2 mi South 8.1 mph - N/A   Partly Cloudy
9:50 AM 41.0 °F 33.9 °F 33.8 °F 76% 29.59 in 6.2 mi South 12.7 mph - N/A   Partly Cloudy
10:20 AM 41.0 °F 33.9 °F 33.8 °F 76% 29.59 in 6.2 mi SSW 12.7 mph - N/A   Partly Cloudy
10:50 AM 41.0 °F 34.3 °F 32.0 °F 70% 29.59 in 6.2 mi South 11.5 mph - N/A   Partly Cloudy
11:20 AM 41.0 °F 31.9 °F 32.0 °F 70% 29.62 in 6.2 mi SSW 19.6 mph - N/A   Partly Cloudy
11:50 AM 41.0 °F 31.9 °F 32.0 °F 70% 29.62 in 6.2 mi SSW 19.6 mph - N/A   Scattered Clouds
12:20 PM 41.0 °F 34.7 °F 32.0 °F 70% 29.62 in 6.2 mi SSW 10.4 mph - N/A   Partly Cloudy
2:50 PM 42.8 °F 38.6 °F 32.0 °F 66% 29.62 in 6.2 mi South 6.9 mph - N/A   Partly Cloudy
3:20 PM 42.8 °F 37.5 °F 32.0 °F 66% 29.62 in 6.2 mi South 9.2 mph - N/A   Partly Cloudy
3:50 PM 42.8 °F 35.4 °F 33.8 °F 70% 29.62 in 6.2 mi SSW 15.0 mph - N/A   Partly Cloudy
4:20 PM 42.8 °F 38.6 °F 32.0 °F 66% 29.62 in 6.2 mi SSE 6.9 mph - N/A   Partly Cloudy
5:20 PM 41.0 °F - 33.8 °F 76% 29.62 in 6.2 mi Variable 2.3 mph - N/A   Partly Cloudy
5:50 PM 41.0 °F 38.0 °F 33.8 °F 76% 29.59 in 6.2 mi SE 4.6 mph - N/A   Overcast
6:20 PM 41.0 °F 38.0 °F 33.8 °F 76% 29.59 in 6.2 mi ESE 4.6 mph - N/A   Overcast
6:50 PM 41.0 °F 39.0 °F 33.8 °F 76% 29.59 in 6.2 mi Variable 3.5 mph - N/A   Overcast
7:20 PM 41.0 °F 39.0 °F 33.8 °F 76% 29.59 in - WNW 3.5 mph - N/A   Clear
8:20 PM 42.8 °F 41.1 °F 37.4 °F 81% 29.56 in 6.2 mi South 3.5 mph - N/A   Mostly Cloudy
8:50 PM 42.8 °F - 37.4 °F 81% 29.56 in 6.2 mi Variable 1.2 mph - N/A   Mostly Cloudy
9:20 PM 42.8 °F 41.1 °F 39.2 °F 87% 29.56 in 6.2 mi Variable 3.5 mph - N/A Rain Light Rain
9:50 PM 41.0 °F 39.0 °F 41.0 °F 100% 29.53 in 6.2 mi Variable 3.5 mph - N/A Rain Light Rain
10:50 PM 42.8 °F 40.1 °F 42.8 °F 100% 29.50 in 6.2 mi SE 4.6 mph - N/A Rain Light Rain
11:20 PM 42.8 °F 39.3 °F 42.8 °F 100% 29.50 in 6.2 mi SSE 5.8 mph - N/A Rain Light Rain Showers
11:50 PM 42.8 °F 37.0 °F 42.8 °F 100% 29.47 in 6.2 mi East 10.4 mph - N/A   Overcast